TimeEST,TemperatureF,Dew PointF,Humidity,Sea Level PressureIn,VisibilityMPH,Wind Direction,Wind SpeedMPH,Gust SpeedMPH,PrecipitationIn,Events,Conditions,WindDirDegrees,DateUTC
12:15 AM,39.2,35.6,87,30.16,10.0,East,9.2,-,N/A,,Overcast,80,2013-02-27 05:15:00
12:35 AM,39.2,35.6,87,30.15,10.0,ENE,10.4,16.1,N/A,,Overcast,70,2013-02-27 05:35:00
12:55 AM,39.2,35.6,87,30.14,10.0,ENE,10.4,16.1,N/A,,Overcast,70,2013-02-27 05:55:00
1:15 AM,39.2,35.6,87,30.13,10.0,ENE,11.5,17.3,N/A,,Overcast,70,2013-02-27 06:15:00
1:35 AM,39.2,35.6,87,30.12,10.0,ENE,11.5,16.1,N/A,,Overcast,70,2013-02-27 06:35:00
1:55 AM,39.2,35.6,87,30.10,10.0,ENE,12.7,18.4,N/A,,Overcast,70,2013-02-27 06:55:00
2:15 AM,39.2,35.6,87,30.09,10.0,ENE,11.5,20.7,N/A,,Overcast,70,2013-02-27 07:15:00
2:35 AM,41.0,37.4,87,30.08,10.0,ENE,11.5,19.6,N/A,,Overcast,70,2013-02-27 07:35:00
2:55 AM,41.0,37.4,87,30.07,7.0,ENE,9.2,-,N/A,,Overcast,70,2013-02-27 07:55:00
3:15 AM,41.0,37.4,87,30.06,7.0,ENE,11.5,-,N/A,,Overcast,60,2013-02-27 08:15:00
3:55 AM,41.0,39.2,93,30.05,5.0,ENE,12.7,-,0.01,,Overcast,60,2013-02-27 08:55:00
4:15 AM,41.0,39.2,93,30.05,4.0,ENE,10.4,-,0.02,,Overcast,60,2013-02-27 09:15:00
4:35 AM,41.0,39.2,93,30.05,3.0,ENE,12.7,18.4,0.06,,Overcast,60,2013-02-27 09:35:00
4:55 AM,41.0,39.2,93,30.03,4.0,ENE,9.2,18.4,0.09,,Overcast,60,2013-02-27 09:55:00
5:15 AM,41.0,39.2,93,30.01,4.0,ENE,13.8,18.4,0.01,,Overcast,60,2013-02-27 10:15:00
5:35 AM,41.0,39.2,93,30.00,4.0,ENE,15.0,18.4,0.02,,Overcast,70,2013-02-27 10:35:00
6:15 AM,42.8,39.2,87,29.99,5.0,ENE,13.8,20.7,N/A,,Overcast,70,2013-02-27 11:15:00
6:35 AM,42.8,41.0,93,29.97,5.0,East,15.0,24.2,0.01,,Overcast,80,2013-02-27 11:35:00
6:55 AM,42.8,41.0,93,29.96,4.0,East,18.4,25.3,0.01,,Overcast,80,2013-02-27 11:55:00
7:15 AM,42.8,41.0,93,29.95,3.0,East,17.3,26.5,0.01,,Overcast,80,2013-02-27 12:15:00
7:35 AM,42.8,41.0,93,29.94,3.0,East,16.1,25.3,0.02,,Overcast,80,2013-02-27 12:35:00
7:55 AM,42.8,41.0,93,29.94,3.0,East,17.3,25.3,0.04,,Overcast,80,2013-02-27 12:55:00
8:15 AM,42.8,41.0,93,29.93,3.0,East,18.4,26.5,0.02,,Overcast,80,2013-02-27 13:15:00
8:35 AM,42.8,41.0,93,29.92,3.0,East,18.4,24.2,0.05,,Overcast,80,2013-02-27 13:35:00
8:55 AM,42.8,41.0,93,29.91,2.5,East,18.4,28.8,0.08,,Overcast,80,2013-02-27 13:55:00
9:15 AM,42.8,41.0,93,29.91,2.5,East,17.3,25.3,0.01,,Overcast,90,2013-02-27 14:15:00
9:35 AM,42.8,41.0,93,29.90,2.5,East,15.0,26.5,0.06,,Overcast,80,2013-02-27 14:35:00
9:55 AM,42.8,41.0,93,29.88,2.0,East,16.1,25.3,0.08,,Overcast,80,2013-02-27 14:55:00
10:15 AM,42.8,41.0,93,29.87,2.5,East,13.8,19.6,N/A,,Overcast,80,2013-02-27 15:15:00
10:35 AM,42.8,41.0,93,29.87,2.0,East,13.8,23.0,0.01,,Overcast,90,2013-02-27 15:35:00
10:55 AM,42.8,41.0,93,29.86,2.0,East,17.3,25.3,0.03,,Overcast,80,2013-02-27 15:55:00
11:15 AM,42.8,41.0,93,29.85,1.5,East,17.3,26.5,0.03,,Overcast,80,2013-02-27 16:15:00
11:55 AM,42.8,41.0,93,29.82,1.5,East,17.3,25.3,0.10,,Overcast,80,2013-02-27 16:55:00
12:15 PM,42.8,39.2,87,29.81,2.0,East,15.0,27.6,0.01,,Overcast,80,2013-02-27 17:15:00
12:35 PM,42.8,39.2,87,29.80,1.2,East,15.0,23.0,0.04,,Overcast,80,2013-02-27 17:35:00
12:55 PM,42.8,39.2,87,29.79,1.5,East,19.6,24.2,0.09,,Overcast,80,2013-02-27 17:55:00
1:15 PM,42.8,39.2,87,29.77,1.5,East,15.0,27.6,0.04,,Overcast,80,2013-02-27 18:15:00
1:35 PM,42.8,39.2,87,29.75,1.8,East,17.3,29.9,0.08,,Overcast,80,2013-02-27 18:35:00
1:55 PM,42.8,39.2,87,29.74,1.8,East,18.4,26.5,0.10,,Overcast,90,2013-02-27 18:55:00
2:15 PM,42.8,39.2,87,29.74,2.0,East,18.4,28.8,N/A,,Overcast,80,2013-02-27 19:15:00
2:35 PM,42.8,39.2,87,29.72,2.5,ENE,12.7,24.2,0.02,,Overcast,70,2013-02-27 19:35:00
2:55 PM,42.8,39.2,87,29.72,1.5,East,15.0,23.0,0.02,,Overcast,80,2013-02-27 19:55:00
3:15 PM,42.8,41.0,93,29.70,2.0,East,24.2,31.1,0.01,,Overcast,80,2013-02-27 20:15:00
3:35 PM,42.8,41.0,93,29.69,1.8,East,13.8,29.9,0.02,,Overcast,80,2013-02-27 20:35:00
3:55 PM,42.8,41.0,93,29.68,1.2,East,11.5,24.2,0.08,,Overcast,90,2013-02-27 20:55:00
4:15 PM,42.8,41.0,93,29.67,2.0,East,16.1,23.0,0.01,,Overcast,90,2013-02-27 21:15:00
4:35 PM,42.8,41.0,93,29.67,1.5,East,10.4,21.9,0.05,,Overcast,100,2013-02-27 21:35:00
4:55 PM,42.8,41.0,93,29.66,1.0,East,4.6,16.1,0.09,,Overcast,90,2013-02-27 21:55:00
5:15 PM,42.8,42.8,100,29.65,3.0,East,13.8,17.3,0.01,,Overcast,90,2013-02-27 22:15:00
5:35 PM,44.6,42.8,93,29.66,2.5,East,9.2,20.7,0.04,,Overcast,80,2013-02-27 22:35:00
5:55 PM,42.8,42.8,100,29.65,2.0,ENE,5.8,-,0.06,,Overcast,70,2013-02-27 22:55:00
6:15 PM,42.8,42.8,100,29.65,2.0,ENE,3.5,-,0.04,,Overcast,60,2013-02-27 23:15:00
6:35 PM,42.8,42.8,100,29.63,2.5,ENE,5.8,-,0.05,,Overcast,60,2013-02-27 23:35:00
6:55 PM,42.8,42.8,100,29.62,2.5,ENE,5.8,-,0.05,,Overcast,70,2013-02-27 23:55:00
7:15 PM,42.8,42.8,100,29.61,5.0,Calm,Calm,-,N/A,,Overcast,0,2013-02-28 00:15:00
7:35 PM,42.8,42.8,100,29.60,4.0,Calm,Calm,-,N/A,,Overcast,0,2013-02-28 00:35:00
8:15 PM,44.6,42.8,93,29.58,3.0,SE,9.2,-,N/A,,Overcast,130,2013-02-28 01:15:00
8:55 PM,42.8,42.8,100,29.56,1.0,Calm,Calm,-,N/A,,Overcast,0,2013-02-28 01:55:00
9:15 PM,42.8,42.8,100,29.57,0.5,Calm,Calm,-,N/A,,Overcast,0,2013-02-28 02:15:00
9:55 PM,42.8,42.8,100,29.56,0.2,Calm,Calm,-,N/A,,Overcast,0,2013-02-28 02:55:00
10:15 PM,42.8,42.8,100,29.56,0.5,Calm,Calm,-,N/A,,Overcast,0,2013-02-28 03:15:00
10:35 PM,42.8,42.8,100,29.56,1.0,SSW,4.6,-,N/A,,Overcast,210,2013-02-28 03:35:00
10:55 PM,44.6,42.8,93,29.56,2.5,SW,3.5,-,N/A,,Overcast,220,2013-02-28 03:55:00
11:15 PM,44.6,42.8,93,29.56,3.0,SSW,5.8,-,N/A,,Overcast,210,2013-02-28 04:15:00
11:35 PM,42.8,42.8,100,29.57,1.2,SW,3.5,-,N/A,,Overcast,220,2013-02-28 04:35:00
11:55 PM,42.8,42.8,100,29.57,1.8,SW,5.8,-,N/A,,Overcast,230,2013-02-28 04:55:00